| time (UTC) | temp F | wind direction | speed MPH | gust MPH | rain 1hr in | rain 24hr in | rain mn in | humidity % | barometer mb |
| 20260503021611 | 52 | 184 | 1.0 | 3.0 | 0.00 | 0.00 | 0.00 | 62 | 1017.0 |
| 20260503020111 | 53 | 184 | 1.0 | 2.0 | 0.00 | 0.00 | 0.00 | 62 | 1017.0 |
| 20260503014611 | 53 | 213 | 0.0 | 2.0 | 0.00 | 0.00 | 0.00 | 61 | 1017.0 |
| 20260503013111 | 53 | 303 | 0.0 | 2.0 | 0.00 | 0.00 | 0.00 | 62 | 1017.0 |
| 20260503011611 | 53 | 327 | 2.0 | 3.0 | 0.00 | 0.00 | 0.00 | 61 | 1017.1 |
| 20260503010110 | 54 | 327 | 2.0 | 3.0 | 0.00 | 0.00 | 0.00 | 61 | 1017.2 |
| 20260503004612 | 54 | 311 | 2.0 | 2.0 | 0.00 | 0.00 | 0.00 | 60 | 1017.2 |
| 20260503003110 | 55 | 311 | 2.0 | 3.0 | 0.00 | 0.00 | 0.00 | 59 | 1017.3 |
| 20260503001610 | 55 | 311 | 2.0 | 3.0 | 0.00 | 0.00 | 0.00 | 60 | 1017.4 |
| 20260503000110 | 55 | 311 | 2.0 | 3.0 | 0.00 | 0.00 | 0.00 | 61 | 1017.5 |
| 20260502234610 | 55 | 311 | 2.0 | 3.0 | 0.00 | 0.00 | 0.00 | 59 | 1017.7 |
| 20260502233109 | 56 | 331 | 1.0 | 3.0 | 0.00 | 0.00 | 0.00 | 59 | 1017.8 |
| 20260502231609 | 56 | 306 | 1.0 | 3.0 | 0.00 | 0.00 | 0.00 | 58 | 1017.9 |
| 20260502230109 | 56 | 320 | 2.0 | 3.0 | 0.00 | 0.00 | 0.00 | 58 | 1018.0 |
| 20260502224609 | 56 | 323 | 2.0 | 3.0 | 0.00 | 0.00 | 0.00 | 58 | 1018.1 |
| 20260502223114 | 56 | 320 | 2.0 | 3.0 | 0.00 | 0.00 | 0.00 | 58 | 1018.2 |
| 20260502221614 | 56 | 322 | 2.0 | 3.0 | 0.00 | 0.00 | 0.00 | 58 | 1018.3 |
| 20260502220114 | 56 | 325 | 2.0 | 3.0 | 0.00 | 0.00 | 0.00 | 56 | 1018.3 |
| 20260502214613 | 57 | 318 | 2.0 | 3.0 | 0.00 | 0.00 | 0.00 | 56 | 1018.4 |
| 20260502213114 | 57 | 319 | 2.0 | 3.0 | 0.00 | 0.00 | 0.00 | 56 | 1018.4 |
| 20260502211613 | 57 | 314 | 2.0 | 4.0 | 0.00 | 0.00 | 0.00 | 56 | 1018.5 |
| 20260502210113 | 57 | 317 | 2.0 | 3.0 | 0.00 | 0.00 | 0.00 | 55 | 1018.6 |
| 20260502204613 | 57 | 327 | 1.0 | 2.0 | 0.00 | 0.00 | 0.00 | 55 | 1018.8 |
| 20260502203113 | 58 | 338 | 2.0 | 3.0 | 0.00 | 0.00 | 0.00 | 53 | 1018.9 |
| 20260502201613 | 58 | 320 | 2.0 | 3.0 | 0.00 | 0.00 | 0.00 | 53 | 1019.0 |
| 20260502200113 | 59 | 320 | 3.0 | 4.0 | 0.00 | 0.00 | 0.00 | 52 | 1019.0 |
| 20260502194613 | 59 | 323 | 2.0 | 3.0 | 0.00 | 0.00 | 0.00 | 52 | 1019.1 |
| 20260502193114 | 59 | 313 | 2.0 | 3.0 | 0.00 | 0.00 | 0.00 | 51 | 1019.2 |
| 20260502191613 | 60 | 313 | 2.0 | 3.0 | 0.00 | 0.00 | 0.00 | 51 | 1019.2 |
| 20260502190113 | 60 | 313 | 2.0 | 3.0 | 0.00 | 0.00 | 0.00 | 50 | 1019.2 |
| 20260502184612 | 60 | 313 | 2.0 | 3.0 | 0.00 | 0.00 | 0.00 | 50 | 1019.1 |
| 20260502183112 | 61 | 321 | 2.0 | 3.0 | 0.00 | 0.00 | 0.00 | 48 | 1019.0 |
| 20260502181612 | 62 | 324 | 2.0 | 3.0 | 0.00 | 0.00 | 0.00 | 45 | 1018.8 |
| 20260502180113 | 62 | 324 | 2.0 | 3.0 | 0.00 | 0.00 | 0.00 | 48 | 1018.7 |
| 20260502170112 | 64 | 321 | 2.0 | 3.0 | 0.00 | 0.00 | 0.00 | 47 | 1018.8 |
| 20260502163113 | 66 | 325 | 1.0 | 3.0 | 0.00 | 0.00 | 0.00 | 43 | 1019.0 |
| 20260502161611 | 68 | 323 | 1.0 | 5.0 | 0.00 | 0.00 | 0.00 | 40 | 1019.1 |
| 20260502160110 | 69 | 315 | 1.0 | 3.0 | 0.00 | 0.00 | 0.00 | 38 | 1019.3 |
| 20260502151610 | 73 | 273 | 2.0 | 6.0 | 0.00 | 0.00 | 0.00 | 30 | 1019.7 |
| 20260502150110 | 76 | 103 | 2.0 | 5.0 | 0.00 | 0.00 | 0.00 | 28 | 1019.9 |
| 20260502140114 | 76 | 71 | 3.0 | 7.0 | 0.00 | 0.00 | 0.00 | 30 | 1020.4 |
| 20260502130114 | 76 | 54 | 2.0 | 5.0 | 0.00 | 0.00 | 0.00 | 31 | 1021.0 |
| 20260502123114 | 74 | 350 | 3.0 | 10.0 | 0.00 | 0.00 | 0.00 | 33 | 1021.6 |
| 20260502121614 | 74 | 221 | 3.0 | 6.0 | 0.00 | 0.00 | 0.00 | 32 | 1021.7 |
| 20260502120114 | 75 | 68 | 2.0 | 6.0 | 0.00 | 0.00 | 0.00 | 36 | 1022.0 |
| 20260502114613 | 72 | 104 | 3.0 | 10.0 | 0.00 | 0.00 | 0.00 | 36 | 1022.2 |
| 20260502113113 | 74 | 238 | 3.0 | 8.0 | 0.00 | 0.00 | 0.00 | 33 | 1022.4 |
| 20260502111613 | 71 | 273 | 3.0 | 8.0 | 0.00 | 0.00 | 0.00 | 36 | 1022.5 |
| 20260502110113 | 73 | 88 | 3.0 | 9.0 | 0.00 | 0.00 | 0.00 | 36 | 1022.7 |
| 20260502104614 | 74 | 86 | 4.0 | 12.0 | 0.00 | 0.00 | 0.00 | 32 | 1022.9 |
| 20260502103112 | 71 | 9 | 6.0 | 14.0 | 0.00 | 0.00 | 0.00 | 33 | 1023.1 |
| 20260502101612 | 71 | 18 | 4.0 | 11.0 | 0.00 | 0.00 | 0.00 | 34 | 1023.3 |
| 20260502100112 | 72 | 5 | 2.0 | 5.0 | 0.00 | 0.00 | 0.00 | 41 | 1023.5 |
| 20260502090112 | 69 | 117 | 3.0 | 7.0 | 0.00 | 0.00 | 0.00 | 37 | 1024.0 |
| 20260502070111 | 64 | 269 | 2.0 | 8.0 | 0.00 | 0.00 | 0.00 | 48 | 1024.5 |
| 20260502064610 | 62 | 315 | 3.0 | 7.0 | 0.00 | 0.00 | 0.00 | 53 | 1024.5 |
| 20260502063110 | 60 | 5 | 3.0 | 7.0 | 0.00 | 0.00 | 0.00 | 54 | 1024.5 |
| 20260502061610 | 59 | 19 | 3.0 | 7.0 | 0.00 | 0.00 | 0.00 | 56 | 1024.5 |
| 20260502060110 | 58 | 15 | 2.0 | 7.0 | 0.00 | 0.00 | 0.00 | 57 | 1024.4 |
| 20260502054610 | 58 | 350 | 3.0 | 6.0 | 0.00 | 0.00 | 0.00 | 58 | 1024.4 |
| 20260502053110 | 55 | 347 | 2.0 | 4.0 | 0.00 | 0.00 | 0.00 | 63 | 1024.5 |
| 20260502051610 | 53 | 325 | 2.0 | 4.0 | 0.00 | 0.00 | 0.00 | 66 | 1024.4 |
| 20260502050111 | 52 | 343 | 3.0 | 5.0 | 0.00 | 0.00 | 0.00 | 67 | 1024.4 |
| 20260502044609 | 51 | 346 | 3.0 | 6.0 | 0.00 | 0.00 | 0.00 | 68 | 1024.3 |
| 20260502043114 | 50 | 350 | 4.0 | 8.0 | 0.00 | 0.00 | 0.00 | 67 | 1024.3 |
| 20260502040114 | 49 | 327 | 3.0 | 6.0 | 0.00 | 0.00 | 0.00 | 68 | 1024.2 |
| 20260502034614 | 49 | 318 | 3.0 | 7.0 | 0.00 | 0.00 | 0.00 | 68 | 1024.2 |
| 20260502033113 | 50 | 317 | 4.0 | 8.0 | 0.00 | 0.00 | 0.00 | 66 | 1024.2 |
| 20260502031614 | 49 | 325 | 3.0 | 7.0 | 0.00 | 0.00 | 0.00 | 68 | 1024.1 |
| 20260502030113 | 49 | 324 | 2.0 | 4.0 | 0.00 | 0.00 | 0.00 | 70 | 1024.1 |
| 20260502024613 | 49 | 294 | 1.0 | 2.0 | 0.00 | 0.00 | 0.00 | 69 | 1024.1 |
| 20260502023113 | 49 | 315 | 1.0 | 2.0 | 0.00 | 0.00 | 0.00 | 70 | 1024.2 |